User: anonymous   Login
Location: Fort Wayne
(41.1310°N, 85.1290°W)
Time: 23:45:58
(UTC-04:00)
Language:

Cosmos 2082 - Orbit

View from above orbital plane
View from above orbital plane
View from above satellite
View from above satellite

Ground track
Ground track

The orbit data is extracted from the following two-line orbital elements,

1 20624U 90046A   15146.24684889  .00000322  00000-0  19370-3 0  9999
2 20624 071.0404 350.4320 0013273 097.3293 262.9338 14.14155630290743
Epoch (UTC): 26 May 2015 05:55:27
Eccentricity: 0.0013273
inclination: 71.0404°
perigee height: 835 km
apogee height: 855 km
right ascension of ascending node: 350.4320°
argument of perigee: 97.3293°
revolutions per day: 14.14155630
mean anomaly at epoch: 262.9338°
orbit number at epoch: 29074

The dashed part of the orbit path shows where the satellite is in the earth's shadow,  

DLR